[[{"header":{"parameterUnit":"m.s-1","parameterCategory":1,"la1":30.2992,"la2":30.254,"lo1":-89.0895,"lo2":-89.0443,"dy":0.0025,"dx":0.0025,"nx":19,"ny":19,"refTime":"2026-05-01T03:00:00:Z","depth":0,"parameterNumber":2,"parameterNumberName":"U-component_of_WINDS"},"data":[0,0,0,-3.3204,-3.3206,-3.3291,-3.3292,-3.3424,-3.3426,0,0,0,0,0,0,0,0,0,0,0,-3.3193,-3.3195,-3.3203,-3.3206,-3.3291,-3.3292,-3.3424,-3.3426,0,0,0,0,0,0,0,0,0,0,0,-3.3193,-3.3194,-3.3196,-3.3206,-3.3291,-3.3292,-3.3424,-3.3351,0,0,0,0,0,0,0,0,0,0,-3.3263,-3.3269,-3.3194,-3.3196,-3.3207,-3.3291,-3.3292,-3.3347,-3.3355,-3.3396,0,-3.3437,0,-3.3434,-3.3436,-3.3437,0,0,0,-3.3194,-3.3262,-3.3272,-3.3197,-3.3208,-3.3291,-3.325,-3.3351,-3.3361,-3.3407,-3.3438,-3.3443,-3.3436,-3.3437,-3.3438,-3.3713,-3.3714,0,0,-3.319,-3.3217,-3.3265,-3.3279,-3.3268,-3.3247,-3.3252,-3.3357,-3.3392,-3.3439,-3.3445,-3.3438,-3.3438,-3.3439,-3.3711,-3.3713,0,0,0,-3.3184,-3.3214,-3.322,-3.3274,-3.3288,-3.325,-3.3256,-3.3388,-3.3387,-3.3447,-3.344,-3.3439,-3.3441,-3.3709,-3.3712,-3.383,0,0,0,-3.318,-3.3211,-3.3219,-3.3236,-3.3286,-3.3339,-3.3285,-3.338,-3.3391,-3.3439,-3.3439,-3.3443,-3.3707,-3.371,-3.3822,-3.3882,0,0,0,-3.3183,-3.3211,-3.3228,-3.3238,-3.3275,-3.3337,-3.3342,-3.3382,-3.3387,-3.3437,-3.3443,-3.3705,-3.371,-3.3815,-3.3871,-3.3964,0,0,0,-3.3193,-3.3332,-3.3231,-3.3382,-3.3275,-3.3409,-3.3341,-3.3439,-3.3495,-3.344,-3.3707,-3.3711,-3.3813,-3.3864,-3.3957,-3.4049,-3.4089,0,0,-3.3383,-3.3355,-3.3443,-3.3355,-3.3514,-3.3393,-3.3569,-3.3594,-3.3573,-3.3667,-3.3673,-3.3825,-3.387,-3.3962,-3.4301,-3.4333,0,0,0,-3.3512,-3.3576,-3.3611,-3.3667,-3.369,-3.3714,-3.3709,-3.3718,-3.3797,-3.3627,-3.3881,-3.3907,-3.396,-3.4003,-3.4031,-3.4075,-3.3732,-3.3731,-3.3731,-3.3823,-3.3789,-3.3931,-3.3907,-3.3961,-3.3954,-3.3995,-3.4006,-3.3955,-3.4015,-3.4044,-3.4254,-3.4305,-3.4326,-3.4372,-3.4088,-3.4088,-3.4088,-3.4089,-3.4101,-3.4186,-3.4114,-3.4227,-3.4189,-3.4283,-3.4281,-3.4242,-3.4323,-3.4229,-3.4274,-3.4178,-3.4362,-3.4401,-3.4097,-3.4096,-3.4095,-3.4094,-3.4093,-3.4303,-3.4338,-3.4346,-3.4422,-3.4484,-3.4453,-3.4535,-3.4497,-3.4461,-3.4506,-3.4533,-3.4531,-3.4526,-3.452,-3.4521,-3.4522,-3.4522,-3.4523,-3.4523,-3.4512,-3.4517,-3.4591,-3.4626,-3.4656,-3.469,-3.4683,-3.4711,-3.4733,-3.4698,-3.4698,-3.4643,-3.4385,-3.4323,-3.4535,-3.4533,-3.4531,-3.453,-3.4529,-3.4812,-3.4737,-3.4852,-3.4882,-3.4919,-3.4984,-3.4932,-3.4993,-3.501,-3.5052,-3.4985,-3.48,-3.4769,-3.4747,-3.4696,-3.4991,-3.4991,-3.4991,-3.4991,-3.4985,-3.4964,-3.5073,-3.5124,-3.5168,-3.5133,-3.5264,-3.5259,-3.5242,-3.525,-3.5201,-3.5128,-3.5107,-3.5089,-3.5059,-3.5011,-3.5379,-3.538,-3.538,-3.5168,-3.515,-3.527,-3.5252,-3.5277,-3.53,-3.5421,-3.5482,-3.5446,-3.5395,-3.5256,-3.524,-3.5122,-3.5085,-3.5034,-3.4989,-3.4899,0,0]},{"header":{"parameterUnit":"m.s-1","parameterCategory":1,"la1":30.2992,"la2":30.254,"lo1":-89.0895,"lo2":-89.0443,"dy":0.0025,"dx":0.0025,"nx":19,"ny":19,"refTime":"2026-05-01T03:00:00:Z","depth":0,"parameterNumber":3,"parameterNumberName":"V-component_of_WINDS"},"data":[0,0,0,-4.5899,-4.5901,-4.5963,-4.5963,-4.6047,-4.6047,0,0,0,0,0,0,0,0,0,0,0,-4.5885,-4.5886,-4.5899,-4.5901,-4.5963,-4.5963,-4.6046,-4.6047,0,0,0,0,0,0,0,0,0,0,0,-4.5885,-4.5886,-4.5887,-4.5901,-4.5963,-4.5963,-4.6046,-4.5997,0,0,0,0,0,0,0,0,0,0,-4.5936,-4.5929,-4.5886,-4.5887,-4.5901,-4.5963,-4.5963,-4.5995,-4.6001,-4.6021,0,-4.6042,0,-4.6046,-4.6053,-4.6054,0,0,0,-4.5897,-4.5924,-4.5937,-4.5887,-4.5902,-4.5963,-4.5934,-4.5998,-4.6004,-4.6028,-4.6043,-4.6046,-4.6048,-4.6054,-4.6055,-4.6188,-4.6189,0,0,-4.5893,-4.5899,-4.5933,-4.5941,-4.5934,-4.5932,-4.5936,-4.6002,-4.6018,-4.6043,-4.6048,-4.6049,-4.6055,-4.6055,-4.6187,-4.6188,0,0,0,-4.5886,-4.5896,-4.5907,-4.5938,-4.5949,-4.5934,-4.5938,-4.6015,-4.6018,-4.6049,-4.605,-4.6055,-4.6056,-4.6186,-4.6187,-4.6232,0,0,0,-4.5884,-4.5892,-4.5906,-4.591,-4.5948,-4.5983,-4.595,-4.6013,-4.6021,-4.605,-4.6055,-4.6057,-4.6185,-4.6187,-4.6229,-4.6252,0,0,0,-4.588,-4.5892,-4.5902,-4.591,-4.5937,-4.5982,-4.5989,-4.6015,-4.6022,-4.6054,-4.6057,-4.6185,-4.6187,-4.6226,-4.6247,-4.6287,0,0,0,-4.5876,-4.5941,-4.5903,-4.5976,-4.5937,-4.601,-4.5988,-4.6042,-4.6075,-4.6056,-4.6185,-4.6187,-4.6225,-4.6244,-4.6284,-4.6321,-4.6337,0,0,-4.5961,-4.5952,-4.5994,-4.5962,-4.6043,-4.6,-4.6086,-4.6111,-4.6109,-4.6161,-4.6164,-4.623,-4.6247,-4.6286,-4.6429,-4.6442,0,0,0,-4.6023,-4.6053,-4.6073,-4.6106,-4.6127,-4.6146,-4.6157,-4.6166,-4.621,-4.6138,-4.6255,-4.6265,-4.6288,-4.6306,-4.6317,-4.6335,-4.6196,-4.6196,-4.6195,-4.615,-4.6144,-4.6213,-4.6214,-4.6245,-4.6255,-4.6279,-4.6292,-4.6277,-4.6305,-4.632,-4.6407,-4.6428,-4.6436,-4.6456,-4.634,-4.634,-4.6341,-4.6341,-4.6273,-4.6314,-4.6292,-4.635,-4.6343,-4.6391,-4.6403,-4.639,-4.6433,-4.6396,-4.6416,-4.6375,-4.6451,-4.6467,-4.6344,-4.6343,-4.6343,-4.6343,-4.6342,-4.6354,-4.6373,-4.6383,-4.6428,-4.6462,-4.646,-4.6502,-4.6494,-4.6486,-4.6506,-4.6519,-4.6519,-4.6516,-4.6513,-4.6513,-4.6514,-4.6514,-4.6514,-4.6514,-4.6435,-4.6445,-4.6482,-4.6509,-4.6527,-4.655,-4.656,-4.6577,-4.6594,-4.6584,-4.6584,-4.6565,-4.646,-4.6433,-4.6519,-4.6518,-4.6518,-4.6517,-4.6517,-4.656,-4.653,-4.6587,-4.6606,-4.6635,-4.6669,-4.6657,-4.6693,-4.6706,-4.6726,-4.6702,-4.6627,-4.6616,-4.6607,-4.6585,-4.6705,-4.6705,-4.6705,-4.6705,-4.6628,-4.6622,-4.6677,-4.6707,-4.6735,-4.673,-4.6792,-4.6799,-4.6802,-4.6809,-4.6791,-4.676,-4.6752,-4.6746,-4.6734,-4.6713,-4.6863,-4.6863,-4.6863,-4.6704,-4.67,-4.6755,-4.6758,-4.678,-4.6798,-4.6856,-4.6889,-4.6885,-4.6869,-4.6814,-4.6807,-4.6758,-4.6743,-4.6725,-4.6707,-4.6668,0,0]}]]